STARLINK-32399, 61627

Orbit data source: Space-Track

STARLINK-32399, 61627 is a payload satellite owned by SpaceX/Seattle (US) in LEO that was launched on Wed, 23 Oct 2024 UTC via an FALCON 9 launch vehicle from the Air Force Eastern Test Range (AFETR). Payload-class satellites include a variety of spacecraft equipped with specific instruments for various scientific and technological missions. These include communications satellites like Starlink; space stations such as the ISS; scientific satellites like the Hubble; Earth observation satellites from companies like Planet Labs, Umbra, and HawkEye 360; GPS; miniature CubeSats for education and research; and military/defense satellites.

Loading next visibility...
Identifier
61627, 2024-191G
Orbit
LEO
Country
Flag of USUS
Related business
Manufacturer
SpaceX/Seattle
Mission
Operational Commercial Communications
Bus & Motor
STARLINK V2M, Unknown motor
Mass
730 kg wet, ~700 kg dry
Launch date (UTC)
2024-10-23 (10 months ago)
Launch vehicle
FALCON 9
Launch site
Air Force Eastern Test Range (AFETR)
Object type
Payload
Rocket body
Debris
Shape & HBR
Box + 2 Pan, 14.5 m
Radar Cross Section
36.964 m², Large (>1 m²)

Expand to show TLE details & history
Last TLE update: 12 hours ago

TLE from 12 hours ago
0 STARLINK-32399
1 61627U 24191G   25243.09745791  .00000667  00000-0  33706-4 0  9999
2 61627  42.9965 143.4328 0000801 269.0562  91.0197 15.27607239 48475
Epoch: 2025-08-31T02:20Z
TLE epoch observation values (Epoch: 2025-08-31T02:20:20.363Z)
Latitude
-0.00007°
Longitude
128.82559°
Altitude
482.752 km
Speed
7.626 km/s
True Right ascension
09h 33m 43s
True Declination
0° 00' 00"
Sunlit
Object was in daylight at epoch
Visualization orbit readout
Latitude
Unknown
Longitude
Unknown
Altitude
Unknown
Speed
Unknown
Apparent Right ascension
Unknown
Apparent Declination
Unknown
Sunlit
N/A
Visualization observer readout
Local Sidereal Time
05:51:04
Azimuth
Unknown
Elevation
Unknown
Doppler factor
Unknown
Orbital elements
Apogee altitude
485.463 km
Perigee altitude
484.364 km
Semi-major axis
6,863.05 km
Eccentricity
0.00008
Inclination
42.9965°
RAAN
143.4328°
Arg. of periapsis
269.0562°
True anomaly
91.02888°
Mean anomaly
91.0197°
Eccentric anomaly
91.02429°
Mean motion
3.8174 °/min
Orbital period
94.31 mins
BSTAR
0.000033706
Loading maneuver chart data...
Computing Atmospheric mass density...
Loading historical data...
Loading historical data...
Loading historical data...
Loading historical data...
Loading historical data...
Loading historical data...
Loading historical data...

Documentation

Showing up to 5 results
|